Location: *
(46.1866°S, 178.5290°W)
Time: 08:56:02
(UTC+00:00)

Cosmos 1461 - Pass Details

Date: 02 October 2021
Orbit: 520 x 642 km, 65.0° (Epoch: 20 October)

Event Time Altitude Azimuth Distance (km) Brightness Sun altitude
Rises 09:22:14 0° 287° (WNW) 2,756 6.7 -31.1°
Reaches altitude 10° 09:24:47 10° 272° (W) 1,889 6.0 -31.4°
Maximum altitude 09:28:13 23° 218° (SW) 1,277 5.3 -31.8°
Drops below altitude 10° 09:31:46 10° 165° (SSE) 1,967 6.0 -32.2°
Sets 09:34:30 0° 150° (SSE) 2,901 6.7 -32.5°
